Regional Weather Roundup
Issued by NWS

Home | Current Version | Previous Version | Text Only | Print | Product List | Glossary Off
Versions: 1 2 3 4 5 6 7 8 9 10 11 12 13 14 15 16 17 18 19 20 21 22 23 24 25 26 27

000
ASUS45 KCYS 301410
RWRWY

WYOMING REGIONAL WEATHER ROUNDUP
NATIONAL WEATHER SERVICE CHEYENNE WY
800 AM MDT THU OCT 30 2014

NOTE:  "FAIR" INDICATES FEW OR NO CLOUDS BELOW 12,000 FEET
WITH NO SIGNIFICANT WEATHER AND/OR OBSTRUCTIONS TO VISIBILITY.

WYZ001-301500-
YELLOWSTONE NATIONAL PARK

CITY           SKY/WX    TMP DP  RH WIND       PRES   REMARKS
LK YELLOWSTONE   N/A     27  25  92 CALM      30.39
W YELLOWSTONE  NOT AVBL

$$
WYZ002>013-054>058-071-098>099-301500-
NORTHERN WYOMING

CITY           SKY/WX    TMP DP  RH WIND       PRES   REMARKS
JACKSON        CLEAR     28  27  93 CALM      30.37S
CODY           MOCLDY    37  28  70 SE3       30.31
GREYBULL       MOCLDY    31  21  66 CALM      30.32R
WORLAND        MOCLDY    31  21  66 S10       30.31R WCI  22
SHERIDAN       CLEAR     31  24  75 SW5       30.31R WCI  26
BUFFALO        CLEAR     37  23  56 W3        30.33R
GILLETTE       CLEAR     35  27  72 W5        30.30R WCI  31
HULETT         FAIR      36  30  80 S7        30.30  WCI  30
NEWCASTLE      FAIR      34  28  80 N12       30.30  WCI  25

$$
WYZ014>020-022>026-101>103-301500-
CENTRAL WYOMING

CITY           SKY/WX    TMP DP  RH WIND       PRES   REMARKS
BIG PINEY      MOCLDY    20  16  84 CALM      30.40R
PINEDALE       PTSUNNY   21  21 100 NW7       30.40S WCI  13
DUBOIS         CLOUDY    32  27  80 NW13      30.34S WCI  22
LANDER         PTCLDY    34  22  61 CALM      30.32R
RIVERTON       PTCLDY    30  22  72 VRB3      30.33R
CASPER         PTCLDY    23  16  74 W3        30.35R
DOUGLAS        CLEAR     28  21  75 NW6       30.35R WCI  22

$$
WYZ021-027>030-104>119-301500-
SOUTHERN WYOMING

CITY           SKY/WX    TMP DP  RH WIND       PRES   REMARKS
EVANSTON       PTCLDY    39  22  50 E5        30.37F
FORT BRIDGER   FAIR      36  25  65 CALM      30.40S
ROCK SPRINGS   CLOUDY    30  26  85 S9        30.38S WCI  22
RAWLINS        CLEAR     33  25  72 CALM      30.38R
SARATOGA       FAIR      27  23  86 S5        30.40R WCI  21
LARAMIE        CLEAR     27  22  81 SE5       30.37R WCI  22
CHEYENNE       CLEAR     34  23  64 W6        30.35R WCI  29
TORRINGTON     CLEAR     32  23  69 NW3       30.32R
PINE BLUFFS    FAIR      30  27  86 S5        30.35R WCI  25

$$



USA.gov is the U.S. government's official web portal to all federal, state and local government web resources and services.